星链-31842 (STARLINK-31842 )

导读

STARLINK-31842是美国SpaceX公司星链(Starlink)低轨互联网卫星星座的一颗组网卫星,于2024年5月6日所属批次由猎鹰九号火箭从卡纳维拉尔角太空军基地发射升空,进入近地轨道。它属于二代星链V2.0 Mini卫星,承担为全球提供高速低延迟宽带互联网服务的任务,是星链星座规模扩展的重要组成部分,目前已入轨参与星座组网运营。

基本信息
目录编号:
59672
目录名称:
STARLINK-31842
国际标识:
2024-084U
轨道中心:
EARTH
卫星名称:
星链-31842
卫星全名:
星链-31842 (STARLINK-31842 )
卫星状态:
在轨 (已飞行851 天)
发射日期:
2024-05-06 UTC
国别 :
美国 (US)
星等 :
--
轨道信息
数据来源 国际轨道数据 AOE轨道数据
星历时间 2026-09-04T08:12:24+0800
13小时前
查看轨道信息
2026-08-30T22:00:00+0800
4天前
查看轨道信息
半长轴 6861.161km 6861.182km
偏心率 0.0003128 0.0002029
轨道倾角 43.007° 43.004°
近地点辐角 265.239° 237.335°
升交点赤经 111.379° 136.370°
平近点角 94.811° 238.279°
近地点 480.877km 481.652km
远地点 485.171km 484.438km
周期 94.266分钟 94.267分钟
每日圈数 15.275887 15.275814
详细信息
固有亮度:
5
最大亮度:
1.5
卫星平台:
Starlink v2.0 mini
覆盖范围:
全球
运营商:
太空探索技术公司
运营商所在国:
美国
制造商(研发单位):
太空探索技术公司
制造商所在国:
美国
使用方式:
暂无
卫星简介
星链(Starlink)计划是由太空探索技术公司(SpaceX)提出的一个巨型低轨卫星互联网星座项目,计划在2019年至2024年间在太空搭建由约1.2万颗卫星组成的“星链”网络,其中1584颗将部署在地球上空550千米处的近地轨道,并从2020年开始工作。该卫星仍在工作。
2D轨道图
3D轨道图
轨道高度分析图
轨道倾角分析图
轨道综合分析图
查看轨道综合分析图
交会数据列表
事件ID 空间交会对象 最接近时刻(TCA) 交会距离 交会风险概率(CRP) 交会风险指数(CRI) 操作
CDM_260904-210105-967206-379821
2026-09-04T
21:01:20+0000
0.368 km
远距离
1.139358E-4 高风险 0.76
CDM_260905-153805-967206-323021
2026-09-05T
15:38:14+0000
0.668 km
远距离
6.643438E-5 中风险 0.71
CDM_260904-201405-967206-379821
2026-09-04T
20:14:16+0000
0.866 km
远距离
8.974938E-6 低风险 0.54
CDM_260903-000305-967206-261922
IRIS-F3 (62619)
2026-09-03T
00:03:51+0000
2.545 km
极远距离
1.645717E-6 低风险 0.39
CDM_260904-192705-967206-379821
2026-09-04T
19:27:11+0000
1.604 km
极远距离
1.238409E-6 低风险 0.37
CDM_260904-223505-967206-379821
2026-09-04T
22:35:29+0000
2.300 km
极远距离
5.518423E-7 极低风险 0.3
CDM_260904-214805-967206-379821
2026-09-04T
21:48:25+0000
2.647 km
极远距离
4.475013E-7 极低风险 0.28